Time,TemperatureF,DewpointF,PressureIn,WindDirection,WindDirectionDegrees,WindSpeedMPH,WindSpeedGustMPH,Humidity,HourlyPrecipIn,Conditions,Clouds,dailyrainin,SoftwareType,DateUTC
2013-08-10 00:14:00,48.9,43.0,30.09,West,276,2.0,4.0,81,0.00,,,0.00,weatherlink.com 1.10,2013-08-10 06:14:00,
2013-08-10 00:29:00,48.4,43.0,30.09,NNW,345,0.0,4.0,81,0.00,,,0.00,weatherlink.com 1.10,2013-08-10 06:29:00,
2013-08-10 00:44:00,47.8,43.0,30.10,NW,322,1.0,3.0,82,0.00,,,0.00,weatherlink.com 1.10,2013-08-10 06:44:00,
2013-08-10 00:59:00,47.7,43.0,30.09,NNW,330,3.0,5.0,82,0.00,,,0.00,weatherlink.com 1.10,2013-08-10 06:59:00,
2013-08-10 01:14:00,46.5,42.0,30.10,NW,311,2.0,3.0,83,0.00,,,0.00,weatherlink.com 1.10,2013-08-10 07:14:00,
2013-08-10 01:29:00,45.6,42.0,30.09,WNW,299,2.0,4.0,86,0.00,,,0.00,weatherlink.com 1.10,2013-08-10 07:29:00,
2013-08-10 01:44:00,45.4,41.0,30.09,NNE,27,3.0,8.0,85,0.00,,,0.00,weatherlink.com 1.10,2013-08-10 07:44:00,
2013-08-10 01:59:00,45.4,41.0,30.09,NNW,333,3.0,7.0,85,0.00,,,0.00,weatherlink.com 1.10,2013-08-10 07:59:00,
2013-08-10 02:14:00,45.1,41.0,30.09,NNE,33,1.0,5.0,86,0.00,,,0.00,weatherlink.com 1.10,2013-08-10 08:14:00,
2013-08-10 02:29:00,44.3,41.0,30.09,West,276,0.0,0.0,87,0.00,,,0.00,weatherlink.com 1.10,2013-08-10 08:29:00,
2013-08-10 02:44:00,43.4,40.0,30.09,ESE,120,0.0,0.0,88,0.00,,,0.00,weatherlink.com 1.10,2013-08-10 08:44:00,
2013-08-10 02:59:00,43.1,40.0,30.10,NNE,19,3.0,5.0,89,0.00,,,0.00,weatherlink.com 1.10,2013-08-10 08:59:00,
2013-08-10 03:14:00,43.2,40.0,30.10,NW,322,4.0,6.0,88,0.00,,,0.00,weatherlink.com 1.10,2013-08-10 09:14:00,
2013-08-10 03:30:00,42.2,39.0,30.10,WNW,288,1.0,3.0,89,0.00,,,0.00,weatherlink.com 1.10,2013-08-10 09:30:00,
2013-08-10 03:45:00,41.8,39.0,30.12,North,350,3.0,5.0,89,0.00,,,0.00,weatherlink.com 1.10,2013-08-10 09:45:00,
2013-08-10 04:00:00,41.5,39.0,30.12,NNW,327,3.0,4.0,90,0.00,,,0.00,weatherlink.com 1.10,2013-08-10 10:00:00,
2013-08-10 04:15:00,40.8,38.0,30.13,North,360,0.0,2.0,90,0.00,,,0.00,weatherlink.com 1.10,2013-08-10 10:15:00,
2013-08-10 04:30:00,40.5,38.0,30.13,NW,319,2.0,4.0,91,0.00,,,0.00,weatherlink.com 1.10,2013-08-10 10:30:00,
2013-08-10 04:45:00,39.9,38.0,30.14,NW,315,0.0,3.0,91,0.00,,,0.00,weatherlink.com 1.10,2013-08-10 10:45:00,
2013-08-10 05:00:00,39.5,37.0,30.14,NNW,327,2.0,3.0,92,0.00,,,0.00,weatherlink.com 1.10,2013-08-10 11:00:00,
2013-08-10 05:15:00,39.3,37.0,30.14,NNW,340,1.0,3.0,92,0.00,,,0.00,weatherlink.com 1.10,2013-08-10 11:15:00,
2013-08-10 05:30:00,39.1,37.0,30.14,NNE,20,0.0,0.0,92,0.00,,,0.00,weatherlink.com 1.10,2013-08-10 11:30:00,
2013-08-10 05:45:00,38.5,36.0,30.15,North,359,1.0,2.0,92,0.00,,,0.00,weatherlink.com 1.10,2013-08-10 11:45:00,
2013-08-10 06:00:00,38.4,36.0,30.15,WNW,288,0.0,3.0,92,0.00,,,0.00,weatherlink.com 1.10,2013-08-10 12:00:00,
2013-08-10 06:15:00,38.0,36.0,30.16,NW,322,0.0,2.0,92,0.00,,,0.00,weatherlink.com 1.10,2013-08-10 12:15:00,
2013-08-10 06:30:00,37.7,36.0,30.16,NNE,23,0.0,0.0,93,0.00,,,0.00,weatherlink.com 1.10,2013-08-10 12:30:00,
2013-08-10 06:45:00,37.8,36.0,30.17,NW,322,0.0,3.0,93,0.00,,,0.00,weatherlink.com 1.10,2013-08-10 12:45:00,
2013-08-10 07:00:00,37.3,36.0,30.17,NNW,337,1.0,2.0,94,0.00,,,0.00,weatherlink.com 1.10,2013-08-10 13:00:00,
2013-08-10 07:15:00,39.3,37.0,30.17,NNW,340,1.0,4.0,92,0.00,,,0.00,weatherlink.com 1.10,2013-08-10 13:15:00,
2013-08-10 07:30:00,40.7,38.0,30.17,NNW,333,3.0,4.0,90,0.00,,,0.00,weatherlink.com 1.10,2013-08-10 13:30:00,
2013-08-10 07:45:00,42.2,39.0,30.18,NE,44,3.0,4.0,88,0.00,,,0.00,weatherlink.com 1.10,2013-08-10 13:45:00,
2013-08-10 08:00:00,44.1,40.0,30.18,NE,39,0.0,0.0,84,0.00,,,0.00,weatherlink.com 1.10,2013-08-10 14:00:00,
2013-08-10 08:15:00,45.7,40.0,30.18,West,280,0.0,0.0,80,0.00,,,0.00,weatherlink.com 1.10,2013-08-10 14:15:00,
2013-08-10 08:30:00,46.6,40.0,30.17,NNW,348,2.0,3.0,79,0.00,,,0.00,weatherlink.com 1.10,2013-08-10 14:30:00,
2013-08-10 08:45:00,49.0,42.0,30.16,ENE,77,0.0,1.0,77,0.00,,,0.00,weatherlink.com 1.10,2013-08-10 14:45:00,
2013-08-10 09:00:00,49.0,41.0,30.15,ENE,72,1.0,4.0,74,0.00,,,0.00,weatherlink.com 1.10,2013-08-10 15:00:00,
2013-08-10 09:15:00,50.4,42.0,30.15,East,85,0.0,4.0,74,0.00,,,0.00,weatherlink.com 1.10,2013-08-10 15:15:00,
2013-08-10 09:30:00,52.9,43.0,30.14,NE,41,2.0,2.0,68,0.00,,,0.00,weatherlink.com 1.10,2013-08-10 15:30:00,
2013-08-10 09:45:00,53.9,42.0,30.13,East,79,0.0,2.0,65,0.00,,,0.00,weatherlink.com 1.10,2013-08-10 15:45:00,
2013-08-10 10:00:00,55.1,43.0,30.12,East,84,1.0,3.0,64,0.00,,,0.00,weatherlink.com 1.10,2013-08-10 16:00:00,
2013-08-10 10:16:00,55.2,44.0,30.12,East,95,1.0,3.0,65,0.00,,,0.00,weatherlink.com 1.10,2013-08-10 16:16:00,
2013-08-10 10:31:00,56.9,44.0,30.11,NE,52,1.0,3.0,62,0.00,,,0.00,weatherlink.com 1.10,2013-08-10 16:31:00,
2013-08-10 10:46:00,58.2,44.0,30.10,NNW,337,0.0,0.0,60,0.00,,,0.00,weatherlink.com 1.10,2013-08-10 16:46:00,
2013-08-10 11:01:00,60.0,44.0,30.09,WNW,300,1.0,2.0,57,0.00,,,0.00,weatherlink.com 1.10,2013-08-10 17:01:00,
2013-08-10 11:16:00,62.3,47.0,30.08,ENE,67,1.0,4.0,57,0.00,,,0.00,weatherlink.com 1.10,2013-08-10 17:16:00,
2013-08-10 11:31:00,63.6,46.0,30.07,SW,218,0.0,5.0,53,0.00,,,0.00,weatherlink.com 1.10,2013-08-10 17:31:00,
2013-08-10 11:46:00,64.9,47.0,30.06,ENE,61,2.0,7.0,53,0.00,,,0.00,weatherlink.com 1.10,2013-08-10 17:46:00,
2013-08-10 12:01:00,65.0,46.0,30.05,SSE,153,1.0,8.0,51,0.00,,,0.00,weatherlink.com 1.10,2013-08-10 18:01:00,
2013-08-10 12:16:00,67.4,46.0,30.04,SE,145,7.0,8.0,47,0.00,,,0.00,weatherlink.com 1.10,2013-08-10 18:16:00,
2013-08-10 12:31:00,67.2,43.0,30.03,East,84,3.0,7.0,41,0.00,,,0.00,weatherlink.com 1.10,2013-08-10 18:31:00,
2013-08-10 12:46:00,66.9,42.0,30.01,SE,145,2.0,9.0,40,0.00,,,0.00,weatherlink.com 1.10,2013-08-10 18:46:00,
2013-08-10 13:01:00,66.4,42.0,30.00,East,82,6.0,10.0,42,0.00,,,0.00,weatherlink.com 1.10,2013-08-10 19:01:00,
2013-08-10 13:16:00,68.0,43.0,30.00,South,178,2.0,10.0,40,0.00,,,0.00,weatherlink.com 1.10,2013-08-10 19:16:00,
2013-08-10 13:31:00,68.9,43.0,30.00,South,187,10.0,20.0,39,0.00,,,0.00,weatherlink.com 1.10,2013-08-10 19:31:00,
2013-08-10 13:46:00,68.6,42.0,29.99,South,181,6.0,14.0,38,0.00,,,0.00,weatherlink.com 1.10,2013-08-10 19:46:00,
2013-08-10 14:01:00,68.1,41.0,29.98,SSW,205,6.0,16.0,37,0.00,,,0.00,weatherlink.com 1.10,2013-08-10 20:01:00,
2013-08-10 14:16:00,69.0,40.0,29.97,ESE,120,5.0,11.0,35,0.00,,,0.00,weatherlink.com 1.10,2013-08-10 20:16:00,
2013-08-10 14:31:00,69.0,39.0,29.97,NW,325,4.0,8.0,33,0.00,,,0.00,weatherlink.com 1.10,2013-08-10 20:31:00,
2013-08-10 14:46:00,67.4,43.0,29.96,West,264,3.0,12.0,41,0.00,,,0.00,weatherlink.com 1.10,2013-08-10 20:46:00,
2013-08-10 15:01:00,66.5,40.0,29.98,NW,318,10.0,16.0,38,0.00,,,0.00,weatherlink.com 1.10,2013-08-10 21:01:00,
2013-08-10 15:16:00,59.7,39.0,29.99,WNW,294,14.0,28.0,47,0.00,,,0.00,weatherlink.com 1.10,2013-08-10 21:16:00,
2013-08-10 15:31:00,55.3,41.0,30.03,NW,316,18.0,29.0,60,0.00,,,0.00,weatherlink.com 1.10,2013-08-10 21:31:00,
2013-08-10 15:46:00,52.6,42.0,30.01,NNW,346,25.0,30.0,67,0.00,,,0.00,weatherlink.com 1.10,2013-08-10 21:46:00,
2013-08-10 16:01:00,51.4,42.0,30.02,NW,311,16.0,27.0,71,0.00,,,0.00,weatherlink.com 1.10,2013-08-10 22:01:00,
2013-08-10 16:16:00,50.0,43.0,30.02,NNW,333,10.0,21.0,77,0.01,,,0.01,weatherlink.com 1.10,2013-08-10 22:16:00,
2013-08-10 16:32:00,50.5,43.0,30.03,WNW,297,9.0,17.0,75,0.01,,,0.01,weatherlink.com 1.10,2013-08-10 22:32:00,
2013-08-10 16:47:00,52.0,42.0,30.05,WNW,300,7.0,19.0,68,0.01,,,0.01,weatherlink.com 1.10,2013-08-10 22:47:00,
2013-08-10 17:02:00,53.1,42.0,30.08,WNW,297,8.0,14.0,65,0.00,,,0.01,weatherlink.com 1.10,2013-08-10 23:02:00,
2013-08-10 17:17:00,50.6,41.0,30.11,WNW,300,9.0,31.0,70,0.01,,,0.02,weatherlink.com 1.10,2013-08-10 23:17:00,
2013-08-10 17:32:00,48.7,40.0,30.12,WNW,291,9.0,23.0,73,0.04,,,0.05,weatherlink.com 1.10,2013-08-10 23:32:00,
2013-08-10 17:47:00,47.2,41.0,30.14,WNW,297,10.0,16.0,78,0.10,,,0.11,weatherlink.com 1.10,2013-08-10 23:47:00,
2013-08-10 18:02:00,46.2,40.0,30.15,NW,305,8.0,14.0,80,0.19,,,0.20,weatherlink.com 1.10,2013-08-11 00:02:00,
2013-08-10 18:17:00,45.7,42.0,30.12,NE,51,2.0,7.0,86,0.22,,,0.24,weatherlink.com 1.10,2013-08-11 00:17:00,
2013-08-10 18:32:00,45.8,42.0,30.14,SW,235,2.0,3.0,86,0.19,,,0.24,weatherlink.com 1.10,2013-08-11 00:32:00,
2013-08-10 18:47:00,45.5,43.0,30.13,SE,142,4.0,5.0,90,0.15,,,0.26,weatherlink.com 1.10,2013-08-11 00:47:00,
2013-08-10 19:02:00,45.3,42.0,30.14,SW,232,2.0,4.0,88,0.06,,,0.26,weatherlink.com 1.10,2013-08-11 01:02:00,
2013-08-10 19:17:00,45.8,43.0,30.13,East,94,7.0,9.0,89,0.02,,,0.26,weatherlink.com 1.10,2013-08-11 01:17:00,
2013-08-10 19:32:00,45.4,42.0,30.14,East,89,4.0,5.0,88,0.02,,,0.26,weatherlink.com 1.10,2013-08-11 01:32:00,
2013-08-10 19:47:00,45.3,42.0,30.14,South,186,3.0,5.0,87,0.00,,,0.26,weatherlink.com 1.10,2013-08-11 01:47:00,
2013-08-10 20:02:00,44.9,42.0,30.13,South,172,3.0,6.0,90,0.00,,,0.26,weatherlink.com 1.10,2013-08-11 02:02:00,
2013-08-10 20:17:00,44.7,42.0,30.13,South,186,3.0,5.0,91,0.00,,,0.26,weatherlink.com 1.10,2013-08-11 02:17:00,
2013-08-10 20:32:00,44.4,42.0,30.13,SSW,200,0.0,3.0,90,0.00,,,0.26,weatherlink.com 1.10,2013-08-11 02:32:00,
2013-08-10 20:47:00,44.3,42.0,30.13,WSW,240,0.0,0.0,90,0.00,,,0.26,weatherlink.com 1.10,2013-08-11 02:47:00,
2013-08-10 21:17:00,44.2,42.0,30.14,North,354,0.0,0.0,91,0.00,,,0.26,weatherlink.com 1.10,2013-08-11 03:17:00,
2013-08-10 21:32:00,44.0,42.0,30.14,North,354,0.0,0.0,92,0.00,,,0.26,weatherlink.com 1.10,2013-08-11 03:32:00,
2013-08-10 21:47:00,43.5,42.0,30.14,North,354,0.0,0.0,93,0.00,,,0.26,weatherlink.com 1.10,2013-08-11 03:47:00,
2013-08-10 22:02:00,43.2,42.0,30.15,North,354,0.0,0.0,94,0.00,,,0.26,weatherlink.com 1.10,2013-08-11 04:02:00,
2013-08-10 22:17:00,43.2,42.0,30.14,NW,325,0.0,0.0,94,0.00,,,0.26,weatherlink.com 1.10,2013-08-11 04:17:00,
2013-08-10 22:32:00,43.1,42.0,30.14,WNW,300,0.0,0.0,94,0.00,,,0.26,weatherlink.com 1.10,2013-08-11 04:32:00,
2013-08-10 22:47:00,42.9,42.0,30.14,NNW,342,0.0,0.0,95,0.00,,,0.26,weatherlink.com 1.10,2013-08-11 04:47:00,
2013-08-10 23:02:00,42.9,42.0,30.14,North,352,0.0,0.0,95,0.00,,,0.26,weatherlink.com 1.10,2013-08-11 05:02:00,
2013-08-10 23:17:00,42.9,42.0,30.14,North,352,0.0,0.0,95,0.00,,,0.26,weatherlink.com 1.10,2013-08-11 05:17:00,
2013-08-10 23:32:00,42.8,41.0,30.14,NW,325,0.0,0.0,94,0.00,,,0.26,weatherlink.com 1.10,2013-08-11 05:32:00,